Вернуться в каталог

FENGYUN 1C DEB

АктивенSSO
NORAD 30370·DEBRIS·🇨🇳 China

Запущен May 10, 1999 с Taiyuan Satellite Launch Center

Loading…

Ближайшие Пролёты (ближайшие 24 часа)

TLE

СвежийSource: Space-Track

Эпоха: Sep 14, 2026, 03:19 UTC

1 30370U 99025ACH 26257.13829288  .00001268  00000-0  58579-3 0  9995
2 30370  99.0349 324.0405 0099009 251.1481 138.1138 14.20271783 10029

Отслеживайте FENGYUN 1C DEB в реальном времени с AllMySat

Download on the App Store